GW6121 Weather Reports


time (UTC)temp
F
wind
direction
speed
knots
gust
knots
rain 1hr
in
rain 24hr
in
rain mn
in
humidity
%
barometer
mb
20260510063002 54 298 2.6 0.0 0.00 0.00 0.04 89 1009.7
20260510061635 53 326 1.7 0.0 0.00 0.00 0.04 89 1009.4
20260510060113 53 331 1.7 0.0 0.00 0.00 0.04 89 1009.7
20260510054557 52 294 1.7 0.0 0.00 0.00 0.04 89 1009.9
20260510053011 52 328 1.7 0.0 0.00 0.00 0.04 89 1009.8
20260510051640 52 344 0.9 0.0 0.00 0.00 0.04 89 1009.5
20260510050115 52 347 1.7 0.0 0.00 0.00 0.04 89 1009.5
20260510044602 52 338 1.7 0.0 0.00 0.00 0.03 89 1009.7
20260510043101 52 339 0.9 0.0 0.00 0.00 0.03 89 1009.8
20260510041507 52 343 0.9 0.0 0.00 0.00 0.03 89 1009.6
20260510040140 52 344 0.9 0.0 0.00 0.00 0.03 89 1009.7
20260510034626 52 344 1.7 0.0 0.00 0.00 0.03 89 1009.8
20260510033119 52 346 1.7 0.0 0.00 0.00 0.03 89 1009.8
20260510031612 52 360 0.0 0.0 0.00 0.00 0.03 89 1009.7
20260510030025 53 360 0.0 0.0 0.00 0.00 0.03 89 1009.9
20260510024600 54 360 0.0 0.0 0.00 0.00 0.03 89 1010.0
20260510023005 54 360 1.7 0.0 0.00 0.00 0.03 89 1010.0
20260510021638 55 313 0.0 0.0 0.00 0.00 0.03 89 1009.8
20260510020116 55 314 0.0 0.0 0.00 0.00 0.03 89 1009.7
20260510014529 55 314 0.0 0.0 0.00 0.00 0.03 89 1009.7
20260510013015 56 314 0.0 0.0 0.00 0.00 0.03 89 1009.8
20260510011511 56 314 0.0 0.0 0.00 0.00 0.03 89 1010.0
20260510010137 56 314 0.0 0.0 0.00 0.00 0.03 89 1010.2
20260510004619 56 314 0.0 0.0 0.00 0.00 0.03 89 1010.6
20260510003024 56 314 0.0 0.0 0.00 0.00 0.03 89 1010.8
20260510001515 57 314 0.9 0.0 0.00 0.00 0.03 89 1010.9
20260510000147 57 314 1.7 0.0 0.00 0.00 0.03 89 1011.3
20260509234637 57 309 1.7 0.0 0.00 0.00 0.03 89 1011.4
20260509233117 57 338 3.5 0.0 0.00 0.00 0.03 89 1011.7
20260509231607 57 321 2.6 0.0 0.00 0.00 0.02 89 1011.7
20260509230019 57 306 2.6 0.0 0.00 0.00 0.02 89 1011.8
20260509224503 57 273 3.5 0.0 0.00 0.00 0.02 89 1011.7
20260509223136 57 298 1.7 0.0 0.00 0.00 0.01 89 1011.7
20260509221629 56 305 2.6 0.0 0.00 0.00 0.01 89 1011.8
20260509220110 56 309 1.7 0.0 0.00 0.00 0.00 89 1011.7
20260509214556 57 284 0.9 0.0 0.00 0.00 0.68 89 1011.6
20260509213014 57 265 0.9 0.0 0.00 0.00 0.66 89 1011.7
20260509211504 57 256 0.9 0.0 0.00 0.00 0.64 89 1011.7
20260509210133 57 165 0.9 0.0 0.00 0.00 0.62 89 1011.7
20260509204623 57 267 1.7 0.0 0.00 0.00 0.59 89 1011.5
20260509203107 57 238 1.7 0.0 0.00 0.00 0.57 89 1011.1
20260509201558 57 290 2.6 0.0 0.00 0.00 0.56 89 1010.4
20260509200003 57 320 4.3 0.0 0.00 0.00 0.56 89 1010.1
20260509194502 57 333 3.5 0.0 0.00 0.00 0.56 89 1010.1
20260509193137 57 289 4.3 0.0 0.00 0.00 0.56 89 1009.4
20260509191622 57 355 7.0 0.0 0.00 0.00 0.56 89 1008.3
20260509190038 57 76 7.0 0.0 0.00 0.00 0.55 88 1008.1
20260509184526 57 74 4.3 0.0 0.00 0.00 0.51 87 1009.3
20260509183007 58 57 3.5 0.0 0.00 0.00 0.46 87 1010.0
20260509181639 59 63 3.5 0.0 0.00 0.00 0.39 87 1010.5
20260509180127 59 184 0.9 0.0 0.00 0.00 0.34 86 1010.8
20260509174605 60 185 0.9 0.0 0.00 0.00 0.28 85 1011.3
20260509173105 60 185 1.7 0.0 0.00 0.00 0.21 83 1011.0
20260509171617 61 192 0.9 0.0 0.00 0.00 0.13 84 1010.9
20260509170026 62 55 1.7 0.0 0.00 0.00 0.07 84 1011.0
20260509164505 63 38 0.9 0.0 0.00 0.00 0.02 83 1010.5
20260509163141 64 43 2.6 0.0 0.00 0.00 0.00 82 1010.3
20260509161626 64 36 2.6 0.0 0.00 0.00 0.00 81 1009.9
20260509160107 64 32 4.3 0.0 0.00 0.00 0.00 81 1009.5
20260509154558 64 35 4.3 0.0 0.00 0.00 0.00 80 1009.8
20260509153015 64 32 3.5 0.0 0.00 0.00 0.00 78 1010.1
20260509151552 64 360 3.5 0.0 0.00 0.00 0.00 78 1010.3
20260509150143 65 23 2.6 0.0 0.00 0.00 0.00 77 1010.8
20260509144631 65 19 3.5 0.0 0.00 0.00 0.00 77 1011.0
20260509143109 65 26 4.3 0.0 0.00 0.00 0.00 76 1010.8
20260509141527 65 22 4.3 0.0 0.00 0.00 0.00 75 1010.8
20260509140022 66 122 3.5 0.0 0.00 0.00 0.00 74 1010.4
20260509134643 66 127 5.2 0.0 0.00 0.00 0.00 74 1010.5
20260509133124 66 118 6.1 0.0 0.00 0.00 0.00 73 1011.0
20260509131636 67 109 6.1 0.0 0.00 0.00 0.00 70 1011.1
20260509130011 67 169 5.2 0.0 0.00 0.00 0.00 69 1011.3
20260509124642 66 120 6.1 0.0 0.00 0.00 0.00 69 1011.3
20260509123128 66 133 5.2 0.0 0.00 0.00 0.00 74 1011.6
20260509121625 66 161 5.2 0.0 0.00 0.00 0.00 75 1012.2
20260509120108 66 173 5.2 0.0 0.00 0.00 0.00 76 1012.3
20260509114610 66 149 6.1 0.0 0.00 0.00 0.00 74 1012.2
20260509113103 66 131 7.0 0.0 0.00 0.00 0.00 72 1012.0
20260509111514 67 134 7.0 0.0 0.00 0.00 0.00 73 1012.1
20260509110141 67 130 5.2 0.0 0.00 0.00 0.00 74 1012.5
20260509104634 66 145 5.2 0.0 0.00 0.00 0.00 76 1012.3
20260509103107 65 46 6.1 0.0 0.00 0.00 0.00 78 1012.7
20260509101520 65 29 4.3 0.0 0.00 0.00 0.00 82 1012.6
20260509100138 66 148 5.2 0.0 0.00 0.00 0.00 78 1012.5
20260509094621 66 77 3.5 0.0 0.00 0.00 0.00 75 1012.3
20260509093104 65 97 3.5 0.0 0.00 0.00 0.00 78 1012.1
20260509091516 65 51 5.2 0.0 0.00 0.00 0.00 79 1012.0
20260509090140 65 30 4.3 0.0 0.00 0.00 0.00 82 1011.9
20260509084620 64 19 3.5 0.0 0.00 0.00 0.00 83 1012.3
20260509083015 63 21 3.5 0.0 0.00 0.00 0.00 83 1012.6
20260509081502 63 31 3.5 0.0 0.00 0.00 0.00 85 1012.5
20260509080134 63 38 2.6 0.0 0.00 0.00 0.00 86 1012.6
20260509074627 62 24 0.9 0.0 0.00 0.00 0.00 87 1012.6
20260509073103 61 25 0.9 0.0 0.00 0.00 0.00 88 1012.7
20260509071603 60 45 0.9 0.0 0.00 0.00 0.00 88 1012.7
20260509070148 59 76 0.0 0.0 0.00 0.00 0.00 88 1012.8
20260509064628 58 39 0.9 0.0 0.00 0.00 0.00 88 1012.8